| time (UTC) | temp C | wind direction | speed KPH | gust KPH | rain 1hr cm | rain 24hr cm | rain mn cm | humidity % | barometer mb |
| 20260504160159 | 16 | 270 | 1.6 | 3.2 | 0.00 | 0.00 | 0.00 | 48 | 1016.0 |
| 20260504160152 | 16 | 270 | 1.6 | 3.2 | 0.00 | 0.00 | 0.00 | 48 | 1016.0 |
| 20260504151025 | 18 | 270 | 4.8 | 8.0 | 0.00 | 0.00 | 0.00 | 47 | 1016.0 |
| 20260504151019 | 18 | 270 | 4.8 | 8.0 | 0.00 | 0.00 | 0.00 | 47 | 1016.0 |
| 20260504150516 | 18 | 270 | 4.8 | 9.7 | 0.00 | 0.00 | 0.00 | 47 | 1016.1 |
| 20260504150510 | 18 | 270 | 4.8 | 9.7 | 0.00 | 0.00 | 0.00 | 47 | 1016.1 |
| 20260504140833 | 19 | 270 | 3.2 | 6.4 | 0.00 | 0.00 | 0.00 | 46 | 1016.3 |
| 20260504140826 | 19 | 270 | 3.2 | 6.4 | 0.00 | 0.00 | 0.00 | 46 | 1016.3 |
| 20260504140317 | 19 | 270 | 4.8 | 8.0 | 0.00 | 0.00 | 0.00 | 46 | 1016.4 |
| 20260504130638 | -17 | 270 | 3.2 | 0.0 | 0.00 | 0.00 | 0.00 | ||
| 20260504130632 | 20 | 270 | 3.2 | 6.4 | 0.00 | 0.00 | 0.00 | 45 | 1016.6 |
| 20260504130122 | 20 | 270 | 4.8 | 8.0 | 0.00 | 0.00 | 0.00 | 45 | 1016.7 |
| 20260504110251 | 18 | 270 | 3.2 | 8.0 | 0.00 | 0.00 | 0.00 | 48 | 1017.1 |
| 20260504110245 | 18 | 270 | 3.2 | 8.0 | 0.00 | 0.00 | 0.00 | 48 | 1017.1 |
| 20260504100608 | 17 | 270 | 4.8 | 6.4 | 0.00 | 0.00 | 0.00 | 48 | 1017.3 |
| 20260504100602 | 17 | 270 | 4.8 | 6.4 | 0.00 | 0.00 | 0.00 | 48 | 1017.3 |
| 20260504081747 | 16 | 270 | 6.4 | 9.7 | 0.00 | 0.00 | 0.00 | 50 | 1017.3 |
| 20260504081244 | 16 | 270 | 4.8 | 8.0 | 0.00 | 0.00 | 0.00 | 50 | 1017.3 |
| 20260504081237 | 16 | 270 | 4.8 | 8.0 | 0.00 | 0.00 | 0.00 | 50 | 1017.3 |
| 20260504080219 | 15 | 270 | 4.8 | 9.7 | 0.00 | 0.00 | 0.00 | 50 | 1017.1 |
| 20260504050712 | 10 | 270 | 8.0 | 0.0 | 0.00 | 0.00 | 0.00 | 52 | 1016.9 |
| 20260504045654 | 10 | 270 | 6.4 | 9.7 | 0.00 | 0.00 | 0.00 | 52 | 1016.8 |
| 20260504045145 | 10 | 270 | 8.0 | 14.5 | 0.00 | 0.00 | 0.00 | 52 | 1016.8 |
| 20260504044643 | 10 | 270 | 8.0 | 12.9 | 0.00 | 0.00 | 0.00 | 52 | 1016.9 |
| 20260504044636 | 10 | 270 | 8.0 | 12.9 | 0.00 | 0.00 | 0.00 | 52 | 1016.9 |
| 20260504044128 | 10 | 270 | 8.0 | 16.1 | 0.00 | 0.00 | 0.00 | 52 | 1016.8 |
| 20260504043619 | 10 | 270 | 8.0 | 17.7 | 0.00 | 0.00 | 0.00 | 52 | 1016.9 |
| 20260504043110 | 10 | 270 | 9.7 | 16.1 | 0.00 | 0.00 | 0.00 | 52 | 1016.9 |
| 20260504042601 | 10 | 270 | 8.0 | 11.3 | 0.00 | 0.00 | 0.00 | 52 | 1016.8 |
| 20260504042052 | 10 | 270 | 8.0 | 16.1 | 0.00 | 0.00 | 0.00 | 52 | 1016.9 |
| 20260504041543 | 10 | 270 | 8.0 | 11.3 | 0.00 | 0.00 | 0.00 | 51 | 1016.8 |
| 20260504041041 | 10 | 270 | 8.0 | 11.3 | 0.00 | 0.00 | 0.00 | 51 | 1017.0 |
| 20260504041034 | 10 | 270 | 8.0 | 11.3 | 0.00 | 0.00 | 0.00 | 51 | 1017.0 |
| 20260504040023 | 9 | 270 | 8.0 | 16.1 | 0.00 | 0.00 | 0.00 | 51 | 1017.2 |
| 20260504040016 | 9 | 270 | 8.0 | 16.1 | 0.00 | 0.00 | 0.00 | 51 | 1017.2 |
| 20260504035514 | 9 | 270 | 8.0 | 12.9 | 0.00 | 0.00 | 0.00 | 51 | 1017.1 |
| 20260504035507 | 9 | 270 | 8.0 | 12.9 | 0.00 | 0.00 | 0.00 | 51 | 1017.1 |
| 20260504034959 | 9 | 270 | 8.0 | 12.9 | 0.00 | 0.00 | 0.00 | 51 | 1017.0 |
| 20260504034450 | 9 | 270 | 9.7 | 19.3 | 0.00 | 0.00 | 0.00 | 51 | 1017.0 |
| 20260504033947 | 9 | 270 | 8.0 | 17.7 | 0.00 | 0.00 | 0.00 | 51 | 1017.0 |
| 20260504033941 | 9 | 270 | 8.0 | 17.7 | 0.00 | 0.00 | 0.00 | 51 | 1017.0 |
| 20260504033438 | 9 | 270 | 9.7 | 14.5 | 0.00 | 0.00 | 0.00 | 51 | 1017.0 |
| 20260504033432 | 9 | 270 | 9.7 | 14.5 | 0.00 | 0.00 | 0.00 | 51 | 1017.0 |
| 20260504032414 | 9 | 270 | 9.7 | 16.1 | 0.00 | 0.00 | 0.00 | 50 | 1017.1 |
| 20260504031905 | 9 | 270 | 8.0 | 12.9 | 0.00 | 0.00 | 0.00 | 50 | 1017.1 |
| 20260504031403 | 9 | 270 | 8.0 | 12.9 | 0.00 | 0.00 | 0.00 | 50 | 1017.0 |
| 20260504031356 | 9 | 270 | 8.0 | 12.9 | 0.00 | 0.00 | 0.00 | 50 | 1017.0 |
| 20260504030854 | 9 | 270 | 9.7 | 16.1 | 0.00 | 0.00 | 0.00 | 50 | 1017.1 |
| 20260504030847 | 9 | 270 | 9.7 | 16.1 | 0.00 | 0.00 | 0.00 | 50 | 1017.1 |
| 20260504025836 | 9 | 270 | 8.0 | 14.5 | 0.00 | 0.00 | 0.00 | 50 | 1017.1 |
| 20260504025830 | 9 | 270 | 8.0 | 14.5 | 0.00 | 0.00 | 0.00 | 50 | 1017.1 |
| 20260504025321 | 9 | 270 | 9.7 | 17.7 | 0.00 | 0.00 | 0.00 | 50 | 1017.2 |
| 20260504024812 | 9 | 270 | 8.0 | 14.5 | 0.00 | 0.00 | 0.00 | 49 | 1017.2 |
| 20260504024310 | 9 | 270 | 9.7 | 14.5 | 0.00 | 0.00 | 0.00 | 49 | 1017.2 |
| 20260504024303 | 9 | 270 | 9.7 | 14.5 | 0.00 | 0.00 | 0.00 | 49 | 1017.2 |
| 20260504023801 | 9 | 270 | 9.7 | 16.1 | 0.00 | 0.00 | 0.00 | 49 | 1017.2 |
| 20260504023754 | 9 | 270 | 9.7 | 16.1 | 0.00 | 0.00 | 0.00 | 49 | 1017.2 |
| 20260504023252 | 9 | 270 | 9.7 | 17.7 | 0.00 | 0.00 | 0.00 | 49 | 1017.2 |
| 20260504023245 | 9 | 270 | 9.7 | 17.7 | 0.00 | 0.00 | 0.00 | 49 | 1017.2 |
| 20260504022743 | 10 | 270 | 9.7 | 12.9 | 0.00 | 0.00 | 0.00 | 49 | 1017.2 |
| 20260504022736 | 10 | 270 | 9.7 | 12.9 | 0.00 | 0.00 | 0.00 | 49 | 1017.2 |
| 20260504022234 | 10 | 270 | 8.0 | 12.9 | 0.00 | 0.00 | 0.00 | 49 | 1017.2 |
| 20260504022227 | 10 | 270 | 8.0 | 12.9 | 0.00 | 0.00 | 0.00 | 49 | 1017.2 |
| 20260504021216 | 10 | 270 | 9.7 | 16.1 | 0.00 | 0.00 | 0.00 | 49 | 1017.2 |
| 20260504021210 | 10 | 270 | 9.7 | 16.1 | 0.00 | 0.00 | 0.00 | 49 | 1017.2 |
| 20260504020707 | 10 | 270 | 8.0 | 11.3 | 0.00 | 0.00 | 0.00 | 49 | 1017.3 |
| 20260504020701 | 10 | 270 | 8.0 | 11.3 | 0.00 | 0.00 | 0.00 | 49 | 1017.3 |
| 20260504020152 | 10 | 270 | 8.0 | 11.3 | 0.00 | 0.00 | 0.00 | 48 | 1017.3 |
| 20260504015141 | 10 | 270 | 8.0 | 12.9 | 0.00 | 0.00 | 0.00 | 48 | 1017.4 |
| 20260504015134 | 10 | 270 | 8.0 | 12.9 | 0.00 | 0.00 | 0.00 | 48 | 1017.4 |
| 20260504014632 | 10 | 270 | 8.0 | 12.9 | 0.00 | 0.00 | 0.00 | 48 | 1017.3 |
| 20260504014625 | 10 | 270 | 8.0 | 12.9 | 0.00 | 0.00 | 0.00 | 48 | 1017.3 |
| 20260504014123 | 10 | 270 | 8.0 | 12.9 | 0.00 | 0.00 | 0.00 | 48 | 1017.3 |
| 20260504014116 | 10 | 270 | 8.0 | 12.9 | 0.00 | 0.00 | 0.00 | 48 | 1017.3 |
| 20260504013614 | 10 | 270 | 9.7 | 17.7 | 0.00 | 0.00 | 0.00 | 48 | 1017.4 |
| 20260504013607 | 10 | 270 | 9.7 | 17.7 | 0.00 | 0.00 | 0.00 | 48 | 1017.4 |
| 20260504013106 | 10 | 270 | 9.7 | 12.9 | 0.00 | 0.00 | 0.00 | 48 | 1017.3 |
| 20260504013059 | 10 | 270 | 9.7 | 12.9 | 0.00 | 0.00 | 0.00 | 48 | 1017.3 |
| 20260504012556 | 10 | 270 | 9.7 | 12.9 | 0.00 | 0.00 | 0.00 | 48 | 1017.3 |
| 20260504012550 | 10 | 270 | 9.7 | 12.9 | 0.00 | 0.00 | 0.00 | 48 | 1017.3 |
| 20260504012048 | 10 | 270 | 9.7 | 16.1 | 0.00 | 0.00 | 0.00 | 48 | 1017.3 |
| 20260504012041 | 10 | 270 | 9.7 | 16.1 | 0.00 | 0.00 | 0.00 | 48 | 1017.3 |
| 20260504011538 | 10 | 270 | 9.7 | 12.9 | 0.00 | 0.00 | 0.00 | 48 | 1017.2 |
| 20260504011532 | 10 | 270 | 9.7 | 12.9 | 0.00 | 0.00 | 0.00 | 48 | 1017.2 |
| 20260504011023 | 10 | 270 | 9.7 | 14.5 | 0.00 | 0.00 | 0.00 | 48 | 1017.2 |
| 20260504010521 | 10 | 270 | 9.7 | 19.3 | 0.00 | 0.00 | 0.00 | 48 | 1017.3 |
| 20260504010514 | 10 | 270 | 9.7 | 19.3 | 0.00 | 0.00 | 0.00 | 48 | 1017.3 |
| 20260504010012 | 10 | 270 | 8.0 | 14.5 | 0.00 | 0.00 | 0.00 | 47 | 1017.3 |
| 20260504010005 | 10 | 270 | 8.0 | 14.5 | 0.00 | 0.00 | 0.00 | 47 | 1017.3 |
| 20260504005503 | -17 | 270 | 9.7 | 12.9 | 0.00 | 0.00 | 0.00 | ||
| 20260504005456 | 10 | 270 | 9.7 | 12.9 | 0.00 | 0.00 | 0.00 | 47 | 1017.2 |
| 20260504004954 | 10 | 270 | 9.7 | 0.0 | 0.00 | 0.00 | 0.00 | 47 | 1017.2 |
| 20260504004947 | 10 | 270 | 9.7 | 0.0 | 0.00 | 0.00 | 0.00 | 47 | 1017.2 |
| 20260504004513 | 10 | 270 | 9.7 | 22.5 | 0.00 | 0.00 | 0.00 | 47 | 1017.2 |
| 20260504004438 | 10 | 270 | 9.7 | 22.5 | 0.00 | 0.00 | 0.00 | 47 | 1017.2 |
| 20260504003936 | 10 | 270 | 8.0 | 12.9 | 0.00 | 0.00 | 0.00 | 47 | 1017.2 |
| 20260504003929 | 10 | 270 | 8.0 | 12.9 | 0.00 | 0.00 | 0.00 | 47 | 1017.2 |
| 20260504003427 | 10 | 270 | 9.7 | 0.0 | 0.00 | 0.00 | 0.00 | 47 | 1017.2 |
| 20260504003421 | 10 | 270 | 9.7 | 0.0 | 0.00 | 0.00 | 0.00 | 47 | 1017.2 |
| 20260504002918 | 10 | 270 | 8.0 | 11.3 | 0.00 | 0.00 | 0.00 | 47 | 1017.2 |
| 20260504002912 | 10 | 270 | 8.0 | 11.3 | 0.00 | 0.00 | 0.00 | 47 | 1017.2 |
| 20260504002409 | 10 | 270 | 8.0 | 16.1 | 0.00 | 0.00 | 0.00 | 47 | 1017.2 |
| 20260504002403 | 10 | 270 | 8.0 | 16.1 | 0.00 | 0.00 | 0.00 | 47 | 1017.2 |
| 20260504001854 | 10 | 270 | 9.7 | 14.5 | 0.00 | 0.00 | 0.00 | 47 | 1017.4 |
| 20260504001345 | 10 | 270 | 8.0 | 16.1 | 0.00 | 0.00 | 0.00 | 47 | 1017.4 |
| 20260504000843 | 10 | 270 | 8.0 | 12.9 | 0.00 | 0.00 | 0.00 | 47 | 1017.3 |
| 20260504000836 | 10 | 270 | 8.0 | 12.9 | 0.00 | 0.00 | 0.00 | 47 | 1017.3 |
| 20260504000334 | 10 | 270 | 9.7 | 0.0 | 0.00 | 0.00 | 0.00 | 47 | 1017.5 |
| 20260504000327 | 10 | 270 | 9.7 | 0.0 | 0.00 | 0.00 | 0.00 | 47 | 1017.5 |
| 20260503235825 | 10 | 270 | 8.0 | 12.9 | 0.00 | 0.00 | 0.00 | 47 | 1017.5 |
| 20260503235818 | 10 | 270 | 8.0 | 12.9 | 0.00 | 0.00 | 0.00 | 47 | 1017.5 |
| 20260503235316 | 10 | 270 | 8.0 | 12.9 | 0.00 | 0.00 | 0.00 | 47 | 1017.4 |
| 20260503235309 | 10 | 270 | 8.0 | 12.9 | 0.00 | 0.00 | 0.00 | 47 | 1017.4 |
| 20260503234252 | 10 | 270 | 9.7 | 14.5 | 0.00 | 0.00 | 0.00 | 47 | 1017.4 |
| 20260503233749 | 10 | 270 | 8.0 | 12.9 | 0.00 | 0.00 | 0.00 | 47 | 1017.5 |
| 20260503233742 | 10 | 270 | 8.0 | 12.9 | 0.00 | 0.00 | 0.00 | 47 | 1017.5 |
| 20260503233240 | 10 | 270 | 9.7 | 12.9 | 0.00 | 0.00 | 0.00 | 47 | 1017.5 |
| 20260503233234 | 10 | 270 | 9.7 | 12.9 | 0.00 | 0.00 | 0.00 | 47 | 1017.5 |
| 20260503232731 | 10 | 270 | 9.7 | 14.5 | 0.00 | 0.00 | 0.00 | 47 | 1017.5 |
| 20260503232725 | 10 | 270 | 9.7 | 14.5 | 0.00 | 0.00 | 0.00 | 47 | 1017.5 |
| 20260503232222 | 10 | 270 | 8.0 | 12.9 | 0.00 | 0.00 | 0.00 | 47 | 1017.6 |
| 20260503232216 | 10 | 270 | 8.0 | 12.9 | 0.00 | 0.00 | 0.00 | 47 | 1017.6 |
| 20260503231713 | 10 | 270 | 8.0 | 9.7 | 0.00 | 0.00 | 0.00 | 47 | 1017.5 |
| 20260503231707 | 10 | 270 | 8.0 | 9.7 | 0.00 | 0.00 | 0.00 | 47 | 1017.5 |
| 20260503231205 | 10 | 270 | 8.0 | 0.0 | 0.00 | 0.00 | 0.00 | 47 | 1017.6 |
| 20260503231158 | 10 | 270 | 8.0 | 0.0 | 0.00 | 0.00 | 0.00 | 47 | 1017.6 |
| 20260503230655 | 10 | 270 | 8.0 | 12.9 | 0.00 | 0.00 | 0.00 | 47 | 1017.6 |
| 20260503230649 | 10 | 270 | 8.0 | 12.9 | 0.00 | 0.00 | 0.00 | 47 | 1017.6 |
| 20260503230140 | 10 | 270 | 8.0 | 14.5 | 0.00 | 0.00 | 0.00 | 47 | 1017.7 |
| 20260503225638 | 10 | 270 | 9.7 | 12.9 | 0.00 | 0.00 | 0.00 | 47 | 1017.6 |
| 20260503225631 | 10 | 270 | 9.7 | 12.9 | 0.00 | 0.00 | 0.00 | 47 | 1017.6 |
| 20260503224613 | 10 | 270 | 11.3 | 16.1 | 0.00 | 0.00 | 0.00 | 47 | 1017.6 |
| 20260503224111 | 10 | 270 | 9.7 | 12.9 | 0.00 | 0.00 | 0.00 | 47 | 1017.6 |
| 20260503224104 | 10 | 270 | 9.7 | 12.9 | 0.00 | 0.00 | 0.00 | 47 | 1017.6 |
| 20260503223602 | 10 | 270 | 8.0 | 12.9 | 0.00 | 0.00 | 0.00 | 47 | 1017.7 |
| 20260503223555 | 10 | 270 | 8.0 | 12.9 | 0.00 | 0.00 | 0.00 | 47 | 1017.7 |
| 20260503223053 | 11 | 270 | 8.0 | 16.1 | 0.00 | 0.00 | 0.00 | 47 | 1017.7 |
| 20260503223046 | 11 | 270 | 8.0 | 16.1 | 0.00 | 0.00 | 0.00 | 47 | 1017.7 |
| 20260503222544 | 11 | 270 | 9.7 | 0.0 | 0.00 | 0.00 | 0.00 | 47 | 1017.6 |
| 20260503222537 | 11 | 270 | 9.7 | 0.0 | 0.00 | 0.00 | 0.00 | 47 | 1017.6 |
| 20260503222035 | 11 | 270 | 9.7 | 0.0 | 0.00 | 0.00 | 0.00 | 47 | 1017.7 |
| 20260503222029 | 11 | 270 | 9.7 | 0.0 | 0.00 | 0.00 | 0.00 | 47 | 1017.7 |
| 20260503221520 | 11 | 270 | 9.7 | 14.5 | 0.00 | 0.00 | 0.00 | 47 | 1017.7 |
| 20260503221017 | 11 | 270 | 9.7 | 16.1 | 0.00 | 0.00 | 0.00 | 47 | 1017.8 |
| 20260503221011 | 11 | 270 | 9.7 | 16.1 | 0.00 | 0.00 | 0.00 | 47 | 1017.8 |
| 20260503220509 | 11 | 270 | 9.7 | 19.3 | 0.00 | 0.00 | 0.00 | 47 | 1017.8 |
| 20260503220502 | 11 | 270 | 9.7 | 19.3 | 0.00 | 0.00 | 0.00 | 47 | 1017.8 |
| 20260503215959 | 11 | 270 | 9.7 | 12.9 | 0.00 | 0.00 | 0.00 | 47 | 1017.8 |
| 20260503215953 | 11 | 270 | 9.7 | 12.9 | 0.00 | 0.00 | 0.00 | 47 | 1017.8 |
| 20260503215450 | 11 | 270 | 8.0 | 12.9 | 0.00 | 0.00 | 0.00 | 47 | 1017.8 |
| 20260503215444 | 11 | 270 | 8.0 | 12.9 | 0.00 | 0.00 | 0.00 | 47 | 1017.8 |
| 20260503214941 | 11 | 270 | 9.7 | 14.5 | 0.00 | 0.00 | 0.00 | 47 | 1017.9 |
| 20260503214935 | 11 | 270 | 9.7 | 14.5 | 0.00 | 0.00 | 0.00 | 47 | 1017.9 |
| 20260503214432 | 11 | 270 | 9.7 | 14.5 | 0.00 | 0.00 | 0.00 | 47 | 1017.9 |
| 20260503214426 | 11 | 270 | 9.7 | 14.5 | 0.00 | 0.00 | 0.00 | 47 | 1017.9 |
| 20260503213917 | 11 | 270 | 9.7 | 12.9 | 0.00 | 0.00 | 0.00 | 47 | 1017.9 |
| 20260503213415 | 11 | 270 | 8.0 | 11.3 | 0.00 | 0.00 | 0.00 | 47 | 1018.0 |
| 20260503213408 | 11 | 270 | 8.0 | 11.3 | 0.00 | 0.00 | 0.00 | 47 | 1018.0 |
| 20260503212906 | 11 | 270 | 9.7 | 12.9 | 0.00 | 0.00 | 0.00 | 47 | 1018.0 |
| 20260503212859 | 11 | 270 | 9.7 | 12.9 | 0.00 | 0.00 | 0.00 | 47 | 1018.0 |
| 20260503212357 | 11 | 270 | 8.0 | 12.9 | 0.00 | 0.00 | 0.00 | 47 | 1018.0 |
| 20260503212350 | 11 | 270 | 8.0 | 12.9 | 0.00 | 0.00 | 0.00 | 47 | 1018.0 |
| 20260503211841 | 11 | 270 | 8.0 | 16.1 | 0.00 | 0.00 | 0.00 | 47 | 1018.1 |
| 20260503211339 | 11 | 270 | 8.0 | 12.9 | 0.00 | 0.00 | 0.00 | 47 | 1018.1 |
| 20260503211332 | 11 | 270 | 8.0 | 12.9 | 0.00 | 0.00 | 0.00 | 47 | 1018.1 |
| 20260503210830 | 11 | 270 | 8.0 | 11.3 | 0.00 | 0.00 | 0.00 | 46 | 1018.1 |
| 20260503210823 | 11 | 270 | 8.0 | 11.3 | 0.00 | 0.00 | 0.00 | 46 | 1018.1 |
| 20260503210321 | 11 | 270 | 9.7 | 14.5 | 0.00 | 0.00 | 0.00 | 46 | 1018.1 |
| 20260503210314 | 11 | 270 | 9.7 | 14.5 | 0.00 | 0.00 | 0.00 | 46 | 1018.1 |
| 20260503205812 | 11 | 270 | 8.0 | 11.3 | 0.00 | 0.00 | 0.00 | 46 | 1018.1 |
| 20260503205805 | 11 | 270 | 8.0 | 11.3 | 0.00 | 0.00 | 0.00 | 46 | 1018.1 |
| 20260503205257 | 11 | 270 | 8.0 | 12.9 | 0.00 | 0.00 | 0.00 | 46 | 1018.1 |
| 20260503204239 | 11 | 270 | 8.0 | 12.9 | 0.00 | 0.00 | 0.00 | 46 | 1018.1 |
| 20260503203736 | 11 | 270 | 9.7 | 16.1 | 0.00 | 0.00 | 0.00 | 46 | 1018.1 |
| 20260503203730 | 11 | 270 | 9.7 | 16.1 | 0.00 | 0.00 | 0.00 | 46 | 1018.1 |
| 20260503203227 | 11 | 270 | 8.0 | 11.3 | 0.00 | 0.00 | 0.00 | 46 | 1018.2 |
| 20260503203221 | 11 | 270 | 8.0 | 11.3 | 0.00 | 0.00 | 0.00 | 46 | 1018.2 |
| 20260503202718 | 11 | 270 | 8.0 | 14.5 | 0.00 | 0.00 | 0.00 | 46 | 1018.2 |
| 20260503202712 | 11 | 270 | 8.0 | 14.5 | 0.00 | 0.00 | 0.00 | 46 | 1018.2 |
| 20260503202209 | 11 | 270 | 8.0 | 11.3 | 0.00 | 0.00 | 0.00 | 46 | 1018.2 |
| 20260503202203 | 11 | 270 | 8.0 | 11.3 | 0.00 | 0.00 | 0.00 | 46 | 1018.2 |
| 20260503201700 | 11 | 270 | 8.0 | 12.9 | 0.00 | 0.00 | 0.00 | 45 | 1018.1 |
| 20260503201654 | 11 | 270 | 8.0 | 12.9 | 0.00 | 0.00 | 0.00 | 45 | 1018.1 |
| 20260503201151 | 11 | 270 | 9.7 | 12.9 | 0.00 | 0.00 | 0.00 | 45 | 1018.0 |
| 20260503201145 | 11 | 270 | 9.7 | 12.9 | 0.00 | 0.00 | 0.00 | 45 | 1018.0 |
| 20260503200642 | 11 | 270 | 8.0 | 11.3 | 0.00 | 0.00 | 0.00 | 45 | 1018.1 |
| 20260503200636 | 11 | 270 | 8.0 | 11.3 | 0.00 | 0.00 | 0.00 | 45 | 1018.1 |
| 20260503200133 | 11 | 270 | 8.0 | 16.1 | 0.00 | 0.00 | 0.00 | 45 | 1018.3 |
| 20260503200127 | 11 | 270 | 8.0 | 16.1 | 0.00 | 0.00 | 0.00 | 45 | 1018.3 |
| 20260503195618 | 11 | 270 | 8.0 | 11.3 | 0.00 | 0.00 | 0.00 | 45 | 1018.2 |
| 20260503195115 | 12 | 270 | 8.0 | 12.9 | 0.00 | 0.00 | 0.00 | 45 | 1018.3 |
| 20260503195109 | 12 | 270 | 8.0 | 12.9 | 0.00 | 0.00 | 0.00 | 45 | 1018.3 |
| 20260503194606 | 12 | 270 | 8.0 | 12.9 | 0.00 | 0.00 | 0.00 | 45 | |
| 20260503194600 | 12 | 270 | 8.0 | 12.9 | 0.00 | 0.00 | 0.00 | 45 | 1018.3 |
| 20260503194057 | 12 | 270 | 8.0 | 11.3 | 0.00 | 0.00 | 0.00 | 44 | 1018.3 |
| 20260503194051 | 12 | 270 | 8.0 | 11.3 | 0.00 | 0.00 | 0.00 | 44 | 1018.3 |
| 20260503193039 | 12 | 270 | 9.7 | 17.7 | 0.00 | 0.00 | 0.00 | 44 | 1018.3 |
| 20260503193033 | 12 | 270 | 9.7 | 17.7 | 0.00 | 0.00 | 0.00 | 44 | 1018.3 |
| 20260503192021 | 12 | 270 | 8.0 | 11.3 | 0.00 | 0.00 | 0.00 | 44 | 1018.2 |
| 20260503192015 | 12 | 270 | 8.0 | 11.3 | 0.00 | 0.00 | 0.00 | 44 | 1018.2 |
| 20260503191514 | 12 | 270 | 6.4 | 12.9 | 0.00 | 0.00 | 0.00 | 44 | 1018.1 |
| 20260503191506 | 12 | 270 | 6.4 | 12.9 | 0.00 | 0.00 | 0.00 | 44 | 1018.1 |
| 20260503191003 | 12 | 270 | 6.4 | 9.7 | 0.00 | 0.00 | 0.00 | 44 | 1018.1 |
| 20260503190957 | 12 | 270 | 6.4 | 9.7 | 0.00 | 0.00 | 0.00 | 44 | 1018.1 |
| 20260503190454 | 12 | 270 | 8.0 | 12.9 | 0.00 | 0.00 | 0.00 | 44 | 1018.2 |
| 20260503190448 | 12 | 270 | 8.0 | 12.9 | 0.00 | 0.00 | 0.00 | 44 | 1018.2 |
| 20260503185945 | 12 | 270 | 8.0 | 12.9 | 0.00 | 0.00 | 0.00 | 43 | 1018.1 |
| 20260503185939 | 12 | 270 | 8.0 | 12.9 | 0.00 | 0.00 | 0.00 | 43 | 1018.1 |
| 20260503185436 | 12 | 270 | 8.0 | 12.9 | 0.00 | 0.00 | 0.00 | 43 | 1018.1 |
| 20260503185430 | 12 | 270 | 8.0 | 12.9 | 0.00 | 0.00 | 0.00 | 43 | 1018.1 |
| 20260503184927 | 12 | 270 | 6.4 | 9.7 | 0.00 | 0.00 | 0.00 | 43 | 1018.0 |
| 20260503184921 | 12 | 270 | 6.4 | 9.7 | 0.00 | 0.00 | 0.00 | 43 | 1018.0 |
| 20260503184418 | 12 | 270 | 6.4 | 11.3 | 0.00 | 0.00 | 0.00 | 43 | 1018.1 |
| 20260503184412 | 12 | 270 | 6.4 | 11.3 | 0.00 | 0.00 | 0.00 | 43 | 1018.1 |
| 20260503183903 | 12 | 270 | 6.4 | 9.7 | 0.00 | 0.00 | 0.00 | 43 | 1018.1 |
| 20260503183354 | 12 | 270 | 8.0 | 12.9 | 0.00 | 0.00 | 0.00 | 43 | 1018.0 |
| 20260503182851 | 12 | 270 | 6.4 | 9.7 | 0.00 | 0.00 | 0.00 | 43 | 1017.9 |
| 20260503182845 | 12 | 270 | 6.4 | 9.7 | 0.00 | 0.00 | 0.00 | 43 | 1017.9 |
| 20260503182342 | 12 | 270 | 6.4 | 11.3 | 0.00 | 0.00 | 0.00 | 42 | 1017.9 |
| 20260503182336 | 12 | 270 | 6.4 | 11.3 | 0.00 | 0.00 | 0.00 | 42 | 1017.9 |
| 20260503181833 | 13 | 270 | 6.4 | 9.7 | 0.00 | 0.00 | 0.00 | 42 | 1018.0 |
| 20260503181827 | 13 | 270 | 6.4 | 9.7 | 0.00 | 0.00 | 0.00 | 42 | 1018.0 |
| 20260503181318 | 13 | 270 | 8.0 | 11.3 | 0.00 | 0.00 | 0.00 | 42 | 1017.9 |
| 20260503180815 | 13 | 270 | 6.4 | 11.3 | 0.00 | 0.00 | 0.00 | 42 | 1018.0 |
| 20260503180808 | 13 | 270 | 6.4 | 11.3 | 0.00 | 0.00 | 0.00 | 42 | 1018.0 |
| 20260503175751 | 13 | 270 | 6.4 | 12.9 | 0.00 | 0.00 | 0.00 | 42 | 1017.8 |
| 20260503175248 | 13 | 270 | 6.4 | 12.9 | 0.00 | 0.00 | 0.00 | 42 | 1017.9 |
| 20260503175241 | 13 | 270 | 6.4 | 12.9 | 0.00 | 0.00 | 0.00 | 42 | 1017.9 |
| 20260503174732 | 13 | 270 | 4.8 | 8.0 | 0.00 | 0.00 | 0.00 | 42 | 1017.9 |
| 20260503173720 | 14 | 270 | 6.4 | 11.3 | 0.00 | 0.00 | 0.00 | 41 | 1017.9 |
| 20260503173714 | 14 | 270 | 6.4 | 11.3 | 0.00 | 0.00 | 0.00 | 41 | 1017.9 |
| 20260503173205 | 14 | 270 | 6.4 | 11.3 | 0.00 | 0.00 | 0.00 | 41 | 1017.9 |
| 20260503172702 | 14 | 270 | 4.8 | 9.7 | 0.00 | 0.00 | 0.00 | 41 | 1017.9 |
| 20260503172656 | 14 | 270 | 4.8 | 9.7 | 0.00 | 0.00 | 0.00 | 41 | 1017.9 |
| 20260503172153 | 15 | 270 | 4.8 | 8.0 | 0.00 | 0.00 | 0.00 | 41 | 1017.9 |
| 20260503172147 | 15 | 270 | 4.8 | 8.0 | 0.00 | 0.00 | 0.00 | 41 | 1017.9 |
| 20260503171638 | 15 | 270 | 4.8 | 11.3 | 0.00 | 0.00 | 0.00 | 41 | 1017.9 |
| 20260503171135 | 15 | 270 | 8.0 | 12.9 | 0.00 | 0.00 | 0.00 | 41 | 1017.9 |
| 20260503171128 | 15 | 270 | 8.0 | 12.9 | 0.00 | 0.00 | 0.00 | 41 | 1017.9 |
| 20260503170626 | 15 | 270 | 6.4 | 9.7 | 0.00 | 0.00 | 0.00 | 40 | 1017.9 |
| 20260503170619 | 15 | 270 | 6.4 | 9.7 | 0.00 | 0.00 | 0.00 | 40 | 1017.9 |
| 20260503170116 | 15 | 270 | 4.8 | 8.0 | 0.00 | 0.00 | 0.00 | 40 | 1017.9 |
| 20260503170110 | 15 | 270 | 4.8 | 8.0 | 0.00 | 0.00 | 0.00 | 40 | 1017.9 |